Time,TemperatureF,DewpointF,PressureIn,WindDirection,WindDirectionDegrees,WindSpeedMPH,WindSpeedGustMPH,Humidity,HourlyPrecipIn,Conditions,Clouds,dailyrainin,SoftwareType,DateUTC
2013-09-24 00:00:00,70.2,66.5,29.96,ESE,109,0.0,0.0,88,0.00,FEW,,0.00,WeatherDisplay:10.37,2013-09-23 14:00:00,
2013-09-24 00:10:00,70.3,66.6,29.96,SE,124,0.0,0.0,88,0.00,FEW,,0.00,WeatherDisplay:10.37,2013-09-23 14:10:00,
2013-09-24 00:15:00,70.4,66.7,29.96,SSW,206,0.0,0.0,88,0.00,FEW,,0.00,WeatherDisplay:10.37,2013-09-23 14:15:00,
2013-09-24 00:20:00,70.4,66.7,29.95,SSW,208,0.0,0.0,88,0.00,FEW,,0.00,WeatherDisplay:10.37,2013-09-23 14:20:00,
2013-09-24 00:25:00,70.4,66.3,29.95,South,191,0.0,0.0,87,0.00,FEW,,0.00,WeatherDisplay:10.37,2013-09-23 14:25:00,
2013-09-24 00:30:00,70.4,66.3,29.95,SSW,199,0.0,0.0,87,0.00,FEW,,0.00,WeatherDisplay:10.37,2013-09-23 14:30:00,
2013-09-24 00:35:00,70.3,66.3,29.95,SSW,200,0.0,0.0,87,0.00,FEW,,0.00,WeatherDisplay:10.37,2013-09-23 14:35:00,
2013-09-24 00:40:00,70.4,66.3,29.95,SSW,200,0.0,0.0,87,0.00,FEW,,0.00,WeatherDisplay:10.37,2013-09-23 14:40:00,
2013-09-24 00:45:00,70.3,66.2,29.95,SSW,200,0.0,0.0,87,0.00,FEW,,0.00,WeatherDisplay:10.37,2013-09-23 14:45:00,
2013-09-24 00:50:00,70.3,66.2,29.95,SSW,200,0.0,0.0,87,0.00,FEW,,0.00,WeatherDisplay:10.37,2013-09-23 14:50:00,
2013-09-24 00:55:00,70.3,66.2,29.94,SSW,200,0.0,0.0,87,0.00,FEW,,0.00,WeatherDisplay:10.37,2013-09-23 14:55:00,
2013-09-24 01:00:00,70.3,66.2,29.94,SSW,200,0.0,0.0,87,0.00,FEW,,0.00,WeatherDisplay:10.37,2013-09-23 15:00:00,
2013-09-24 01:10:00,70.4,66.4,29.95,SSW,199,0.0,0.0,87,0.00,FEW,,0.00,WeatherDisplay:10.37,2013-09-23 15:10:00,
2013-09-24 01:15:00,70.5,66.4,29.94,SSW,202,0.0,0.0,87,0.00,FEW,,0.00,WeatherDisplay:10.37,2013-09-23 15:15:00,
2013-09-24 01:20:00,70.4,66.0,29.94,SSW,210,0.0,0.0,86,0.00,FEW,,0.00,WeatherDisplay:10.37,2013-09-23 15:20:00,
2013-09-24 01:25:00,70.4,66.0,29.94,SW,219,0.0,0.0,86,0.00,FEW,,0.00,WeatherDisplay:10.37,2013-09-23 15:25:00,
2013-09-24 01:30:00,70.3,65.9,29.94,SW,220,0.0,0.0,86,0.00,FEW,,0.00,WeatherDisplay:10.37,2013-09-23 15:30:00,
2013-09-24 01:35:00,70.3,65.9,29.94,SW,220,0.0,0.0,86,0.00,FEW,,0.00,WeatherDisplay:10.37,2013-09-23 15:35:00,
2013-09-24 01:45:00,70.2,65.8,29.93,SW,220,0.0,0.0,86,0.00,FEW,,0.00,WeatherDisplay:10.37,2013-09-23 15:45:00,
2013-09-24 01:50:00,70.1,65.7,29.93,SW,221,0.0,0.0,86,0.00,FEW,,0.00,WeatherDisplay:10.37,2013-09-23 15:50:00,
2013-09-24 01:55:00,70.0,65.6,29.93,SW,218,0.0,0.0,86,0.00,FEW,,0.00,WeatherDisplay:10.37,2013-09-23 15:55:00,
2013-09-24 02:00:00,69.9,65.5,29.93,SW,214,0.0,0.0,86,0.00,FEW,,0.00,WeatherDisplay:10.37,2013-09-23 16:00:00,
2013-09-24 02:10:00,69.8,65.8,29.93,SW,214,0.0,0.0,87,0.00,FEW,,0.00,WeatherDisplay:10.37,2013-09-23 16:10:00,
2013-09-24 02:15:00,69.8,65.8,29.93,SW,214,0.0,0.0,87,0.00,FEW,,0.00,WeatherDisplay:10.37,2013-09-23 16:15:00,
2013-09-24 02:20:00,69.7,65.7,29.93,SW,214,0.0,0.0,87,0.00,FEW,,0.00,WeatherDisplay:10.37,2013-09-23 16:20:00,
2013-09-24 02:25:00,69.6,65.5,29.93,SW,214,0.0,0.0,87,0.00,FEW,,0.00,WeatherDisplay:10.37,2013-09-23 16:25:00,
2013-09-24 02:30:00,69.4,65.4,29.93,SW,214,0.0,0.0,87,0.00,FEW,,0.00,WeatherDisplay:10.37,2013-09-23 16:30:00,
2013-09-24 02:35:00,69.3,65.3,29.93,SW,214,0.0,0.0,87,0.00,FEW,,0.00,WeatherDisplay:10.37,2013-09-23 16:35:00,
2013-09-24 02:40:00,69.2,65.2,29.92,SW,214,0.0,0.0,87,0.00,FEW,,0.00,WeatherDisplay:10.37,2013-09-23 16:40:00,
2013-09-24 02:50:00,68.9,64.9,29.92,SSW,194,0.0,0.0,87,0.00,FEW,,0.00,WeatherDisplay:10.37,2013-09-23 16:50:00,
2013-09-24 02:55:00,68.8,64.8,29.92,South,175,0.0,0.0,87,0.00,FEW,,0.00,WeatherDisplay:10.37,2013-09-23 16:55:00,
2013-09-24 03:00:00,68.8,64.8,29.92,South,176,0.0,0.0,87,0.00,FEW,,0.00,WeatherDisplay:10.37,2013-09-23 17:00:00,
2013-09-24 03:05:00,68.8,64.7,29.92,South,184,0.0,0.0,87,0.00,FEW,,0.00,WeatherDisplay:10.37,2013-09-23 17:05:00,
2013-09-24 03:10:00,68.7,64.7,29.92,South,187,0.0,0.0,87,0.00,FEW,,0.00,WeatherDisplay:10.37,2013-09-23 17:10:00,
2013-09-24 03:15:00,68.7,64.7,29.92,South,185,0.0,0.0,87,0.00,FEW,,0.00,WeatherDisplay:10.37,2013-09-23 17:15:00,
2013-09-24 03:20:00,68.7,64.7,29.92,South,185,0.0,0.0,87,0.00,FEW,,0.00,WeatherDisplay:10.37,2013-09-23 17:20:00,
2013-09-24 03:25:00,68.7,64.7,29.92,South,185,0.0,0.0,87,0.00,FEW,,0.00,WeatherDisplay:10.37,2013-09-23 17:25:00,
2013-09-24 03:30:00,68.7,64.7,29.92,South,188,0.0,0.0,87,0.00,FEW,,0.00,WeatherDisplay:10.37,2013-09-23 17:30:00,
2013-09-24 03:35:00,68.6,64.6,29.92,SSW,192,0.0,0.0,87,0.00,FEW,,0.00,WeatherDisplay:10.37,2013-09-23 17:35:00,
2013-09-24 03:40:00,68.6,64.6,29.92,SSW,193,0.0,0.0,87,0.00,FEW,,0.00,WeatherDisplay:10.37,2013-09-23 17:40:00,
2013-09-24 03:45:00,68.6,64.6,29.92,SSW,193,0.0,0.0,87,0.00,FEW,,0.00,WeatherDisplay:10.37,2013-09-23 17:45:00,
2013-09-24 03:55:00,68.5,64.5,29.92,South,190,0.0,0.0,87,0.00,FEW,,0.00,WeatherDisplay:10.37,2013-09-23 17:55:00,
2013-09-24 04:00:00,68.4,64.4,29.92,SSW,197,0.0,0.0,87,0.00,FEW,,0.00,WeatherDisplay:10.37,2013-09-23 18:00:00,
2013-09-24 04:10:00,68.3,64.3,29.92,SSW,211,0.0,0.0,87,0.00,FEW,,0.00,WeatherDisplay:10.37,2013-09-23 18:10:00,
2013-09-24 04:15:00,68.3,64.6,29.92,SSW,210,0.0,0.0,88,0.00,FEW,,0.00,WeatherDisplay:10.37,2013-09-23 18:15:00,
2013-09-24 04:20:00,68.3,64.6,29.92,SSW,206,0.0,0.0,88,0.00,FEW,,0.00,WeatherDisplay:10.37,2013-09-23 18:20:00,
2013-09-24 04:25:00,68.3,64.6,29.93,SSW,202,0.0,0.0,88,0.00,FEW,,0.00,WeatherDisplay:10.37,2013-09-23 18:25:00,
2013-09-24 04:30:00,68.3,64.6,29.93,SSW,202,0.0,0.0,88,0.00,FEW,,0.00,WeatherDisplay:10.37,2013-09-23 18:30:00,
2013-09-24 04:35:00,68.2,64.5,29.93,SSW,207,0.0,0.0,88,0.00,FEW,,0.00,WeatherDisplay:10.37,2013-09-23 18:35:00,
2013-09-24 04:40:00,68.1,64.4,29.93,SW,215,0.0,0.0,88,0.00,FEW,,0.00,WeatherDisplay:10.37,2013-09-23 18:40:00,
2013-09-24 04:45:00,68.1,64.4,29.93,SW,216,0.0,0.0,88,0.00,FEW,,0.00,WeatherDisplay:10.37,2013-09-23 18:45:00,
2013-09-24 04:50:00,68.1,64.4,29.93,SSW,213,0.0,0.0,88,0.00,FEW,,0.00,WeatherDisplay:10.37,2013-09-23 18:50:00,
2013-09-24 04:55:00,68.0,64.3,29.93,SSW,212,0.0,0.0,88,0.00,FEW,,0.00,WeatherDisplay:10.37,2013-09-23 18:55:00,
2013-09-24 05:00:00,68.0,64.3,29.94,SSW,212,0.0,0.0,88,0.00,FEW,,0.00,WeatherDisplay:10.37,2013-09-23 19:00:00,
2013-09-24 05:05:00,67.9,63.9,29.94,SSW,213,0.0,0.0,87,0.00,FEW,,0.00,WeatherDisplay:10.37,2013-09-23 19:05:00,
2013-09-24 05:10:00,67.9,63.9,29.94,SSW,212,0.0,0.0,87,0.00,FEW,,0.00,WeatherDisplay:10.37,2013-09-23 19:10:00,
2013-09-24 05:15:00,67.9,63.9,29.94,SSW,208,0.0,0.0,87,0.00,FEW,,0.00,WeatherDisplay:10.37,2013-09-23 19:15:00,
2013-09-24 05:20:00,67.9,63.9,29.94,SSW,199,0.0,0.0,87,0.00,FEW,,0.00,WeatherDisplay:10.37,2013-09-23 19:20:00,
2013-09-24 05:25:00,67.9,63.9,29.94,SSW,199,0.0,0.0,87,0.00,FEW,,0.00,WeatherDisplay:10.37,2013-09-23 19:25:00,
2013-09-24 05:30:00,67.8,63.8,29.95,SSW,210,0.0,0.0,87,0.00,FEW,,0.00,WeatherDisplay:10.37,2013-09-23 19:30:00,
2013-09-24 05:35:00,67.9,63.9,29.95,SSW,206,0.0,0.0,87,0.00,FEW,,0.00,WeatherDisplay:10.37,2013-09-23 19:35:00,
2013-09-24 05:40:00,67.9,63.9,29.95,SW,216,0.0,0.0,87,0.00,FEW,,0.00,WeatherDisplay:10.37,2013-09-23 19:40:00,
2013-09-24 05:45:00,67.9,63.9,29.95,SW,226,0.0,0.0,87,0.00,FEW,,0.00,WeatherDisplay:10.37,2013-09-23 19:45:00,
2013-09-24 05:50:00,67.9,63.9,29.96,SW,221,0.0,0.0,87,0.00,FEW,,0.00,WeatherDisplay:10.37,2013-09-23 19:50:00,
2013-09-24 05:55:00,67.9,63.9,29.96,SW,219,0.0,0.0,87,0.00,FEW,,0.00,WeatherDisplay:10.37,2013-09-23 19:55:00,
2013-09-24 06:00:00,67.9,63.9,29.96,SSW,211,0.0,0.0,87,0.00,FEW,,0.00,WeatherDisplay:10.37,2013-09-23 20:00:00,
2013-09-24 06:10:00,67.9,63.9,29.96,SSW,206,0.0,0.0,87,0.00,FEW,,0.00,WeatherDisplay:10.37,2013-09-23 20:10:00,
2013-09-24 06:15:00,67.9,63.9,29.97,SSW,207,0.0,0.0,87,0.00,FEW,,0.00,WeatherDisplay:10.37,2013-09-23 20:15:00,
2013-09-24 06:20:00,68.0,64.0,29.96,SSW,203,0.0,0.0,87,0.00,FEW,,0.00,WeatherDisplay:10.37,2013-09-23 20:20:00,
2013-09-24 06:25:00,68.0,64.0,29.97,SSW,198,0.0,0.0,87,0.00,FEW,,0.00,WeatherDisplay:10.37,2013-09-23 20:25:00,
2013-09-24 06:30:00,68.1,64.4,29.97,SSW,210,0.0,0.0,88,0.00,FEW,,0.00,WeatherDisplay:10.37,2013-09-23 20:30:00,
2013-09-24 06:35:00,68.2,64.5,29.97,SW,226,0.0,0.0,88,0.00,FEW,,0.00,WeatherDisplay:10.37,2013-09-23 20:35:00,
2013-09-24 06:40:00,68.3,64.6,29.97,SW,231,0.0,0.0,88,0.00,FEW,,0.00,WeatherDisplay:10.37,2013-09-23 20:40:00,
2013-09-24 06:45:00,68.5,64.8,29.98,SW,229,0.0,0.0,88,0.00,FEW,,0.00,WeatherDisplay:10.37,2013-09-23 20:45:00,
2013-09-24 06:50:00,68.7,65.0,29.98,SW,225,0.0,0.0,88,0.00,FEW,,0.00,WeatherDisplay:10.37,2013-09-23 20:50:00,
2013-09-24 06:55:00,68.9,65.2,29.98,SW,220,0.0,0.0,88,0.00,FEW,,0.00,WeatherDisplay:10.37,2013-09-23 20:55:00,
2013-09-24 07:00:00,69.1,65.1,29.98,SW,217,0.0,0.0,87,0.00,FEW,,0.00,WeatherDisplay:10.37,2013-09-23 21:00:00,
2013-09-24 07:10:00,69.5,65.5,29.98,SW,218,0.0,0.0,87,0.00,FEW,,0.00,WeatherDisplay:10.37,2013-09-23 21:10:00,
2013-09-24 07:15:00,69.7,65.7,29.98,SW,218,0.0,0.0,87,0.00,FEW,,0.00,WeatherDisplay:10.37,2013-09-23 21:15:00,
2013-09-24 07:25:00,70.5,66.1,29.98,South,186,0.0,0.0,86,0.00,FEW,,0.00,WeatherDisplay:10.37,2013-09-23 21:25:00,
2013-09-24 07:30:00,71.0,66.3,29.99,SSE,154,0.0,0.0,85,0.00,FEW,,0.00,WeatherDisplay:10.37,2013-09-23 21:30:00,
2013-09-24 07:35:00,71.6,66.8,29.99,SSE,148,0.0,0.0,85,0.00,FEW,,0.00,WeatherDisplay:10.37,2013-09-23 21:35:00,
2013-09-24 07:40:00,72.1,67.0,29.99,South,171,0.0,0.0,84,0.00,FEW,,0.00,WeatherDisplay:10.37,2013-09-23 21:40:00,
2013-09-24 07:45:00,72.4,66.9,29.99,SSW,207,0.0,0.0,83,0.00,FEW,,0.00,WeatherDisplay:10.37,2013-09-23 21:45:00,
2013-09-24 07:50:00,72.7,66.9,29.99,SW,223,0.0,0.0,82,0.00,FEW,,0.00,WeatherDisplay:10.37,2013-09-23 21:50:00,
2013-09-24 07:55:00,73.3,67.1,30.00,SW,220,0.0,0.0,81,0.00,FEW,,0.00,WeatherDisplay:10.37,2013-09-23 21:55:00,
2013-09-24 08:00:00,73.7,67.1,30.00,SSW,213,0.0,0.0,80,0.00,FEW,,0.00,WeatherDisplay:10.37,2013-09-23 22:00:00,
2013-09-24 08:10:00,74.9,67.9,30.00,SSE,157,0.0,0.0,79,0.00,FEW,,0.00,WeatherDisplay:10.37,2013-09-23 22:10:00,
2013-09-24 08:15:00,75.5,68.1,30.01,SSW,195,0.0,0.0,78,0.00,FEW,,0.00,WeatherDisplay:10.37,2013-09-23 22:15:00,
2013-09-24 08:20:00,76.1,68.4,30.01,SW,221,0.0,0.0,77,0.00,FEW,,0.00,WeatherDisplay:10.37,2013-09-23 22:20:00,
2013-09-24 08:25:00,76.7,68.6,30.01,South,189,0.0,0.0,76,0.00,FEW,,0.00,WeatherDisplay:10.37,2013-09-23 22:25:00,
2013-09-24 08:30:00,77.1,68.6,30.01,SSW,192,0.0,0.0,75,0.00,FEW,,0.00,WeatherDisplay:10.37,2013-09-23 22:30:00,
2013-09-24 08:40:00,77.9,69.3,30.01,SW,218,0.0,0.0,75,0.00,FEW,,0.00,WeatherDisplay:10.37,2013-09-23 22:40:00,
2013-09-24 08:45:00,78.3,69.3,30.01,SSE,168,0.0,0.0,74,0.00,FEW,,0.00,WeatherDisplay:10.37,2013-09-23 22:45:00,
2013-09-24 08:50:00,78.7,69.3,30.02,SSE,154,0.0,0.0,73,0.00,FEW,,0.00,WeatherDisplay:10.37,2013-09-23 22:50:00,
2013-09-24 08:55:00,79.1,69.3,30.02,SSE,158,0.0,0.0,72,0.00,FEW,,0.00,WeatherDisplay:10.37,2013-09-23 22:55:00,
2013-09-24 09:00:00,79.6,69.8,30.02,SSW,194,0.0,0.0,72,0.00,FEW,,0.00,WeatherDisplay:10.37,2013-09-23 23:00:00,
2013-09-24 09:10:00,80.6,70.7,30.02,ESE,118,0.0,0.0,72,0.00,FEW,,0.00,WeatherDisplay:10.37,2013-09-23 23:10:00,
2013-09-24 09:15:00,80.3,70.0,30.02,East,83,0.0,0.0,71,0.00,FEW,,0.00,WeatherDisplay:10.37,2013-09-23 23:15:00,
2013-09-24 09:20:00,80.3,70.0,30.02,East,81,0.0,0.0,71,0.00,FEW,,0.00,WeatherDisplay:10.37,2013-09-23 23:20:00,
2013-09-24 09:25:00,80.6,70.3,30.02,East,83,0.0,0.0,71,0.00,FEW,,0.00,WeatherDisplay:10.37,2013-09-23 23:25:00,
2013-09-24 09:30:00,80.7,70.4,30.02,East,85,0.0,0.0,71,0.00,FEW,,0.00,WeatherDisplay:10.37,2013-09-23 23:30:00,
2013-09-24 09:35:00,80.9,70.6,30.02,East,84,0.0,0.0,71,0.00,FEW,,0.00,WeatherDisplay:10.37,2013-09-23 23:35:00,
2013-09-24 09:40:00,81.2,70.4,30.01,East,82,0.0,0.0,70,0.00,FEW,,0.00,WeatherDisplay:10.37,2013-09-23 23:40:00,
2013-09-24 09:45:00,81.4,71.1,30.01,East,80,0.0,0.0,71,0.00,FEW,,0.00,WeatherDisplay:10.37,2013-09-23 23:45:00,
2013-09-24 09:50:00,81.3,70.6,30.01,East,79,0.0,0.0,70,0.00,FEW,,0.00,WeatherDisplay:10.37,2013-09-23 23:50:00,
2013-09-24 09:55:00,81.3,70.6,30.01,ENE,77,0.0,0.0,70,0.00,FEW,,0.00,WeatherDisplay:10.37,2013-09-23 23:55:00,
2013-09-24 10:00:00,81.5,70.7,30.01,ENE,76,0.0,0.0,70,0.00,FEW,,0.00,WeatherDisplay:10.37,2013-09-24 00:00:00,
2013-09-24 10:10:00,82.2,71.1,30.01,ENE,76,0.0,0.0,69,0.00,FEW,,0.00,WeatherDisplay:10.37,2013-09-24 00:10:00,
2013-09-24 10:15:00,82.3,71.6,30.01,ENE,76,0.0,0.0,70,0.00,FEW,,0.00,WeatherDisplay:10.37,2013-09-24 00:15:00,
2013-09-24 10:20:00,82.3,71.1,30.01,ENE,75,0.0,0.0,69,0.00,FEW,,0.00,WeatherDisplay:10.37,2013-09-24 00:20:00,
2013-09-24 10:25:00,82.5,71.3,30.02,ENE,75,0.0,0.0,69,0.00,FEW,,0.00,WeatherDisplay:10.37,2013-09-24 00:25:00,
2013-09-24 10:30:00,82.7,71.1,30.01,ENE,76,0.0,0.0,68,0.00,FEW,,0.00,WeatherDisplay:10.37,2013-09-24 00:30:00,
2013-09-24 10:35:00,83.0,71.3,30.01,ENE,76,0.0,0.0,68,0.00,FEW,,0.00,WeatherDisplay:10.37,2013-09-24 00:35:00,
2013-09-24 10:40:00,83.2,72.0,30.01,ENE,74,0.0,0.0,69,0.00,FEW,,0.00,WeatherDisplay:10.37,2013-09-24 00:40:00,
2013-09-24 10:45:00,83.7,72.5,30.01,ENE,73,0.0,0.0,69,0.00,FEW,,0.00,WeatherDisplay:10.37,2013-09-24 00:45:00,
2013-09-24 10:50:00,84.5,73.2,30.01,ENE,70,0.0,0.0,69,0.00,FEW,,0.00,WeatherDisplay:10.37,2013-09-24 00:50:00,
2013-09-24 10:55:00,84.8,72.7,30.01,ENE,69,0.0,0.0,67,0.00,FEW,,0.00,WeatherDisplay:10.37,2013-09-24 00:55:00,
2013-09-24 11:00:00,85.4,72.7,30.01,ENE,69,0.0,0.0,66,0.00,FEW,,0.00,WeatherDisplay:10.37,2013-09-24 01:00:00,
2013-09-24 11:05:00,85.5,71.9,30.00,ENE,67,0.0,0.0,64,0.00,FEW,,0.00,WeatherDisplay:10.37,2013-09-24 01:05:00,
2013-09-24 11:10:00,85.4,72.3,30.00,ENE,68,0.0,0.0,65,0.00,FEW,,0.00,WeatherDisplay:10.37,2013-09-24 01:10:00,
2013-09-24 11:15:00,85.7,71.7,30.01,ENE,68,0.0,0.0,63,0.00,FEW,,0.00,WeatherDisplay:10.37,2013-09-24 01:15:00,
2013-09-24 11:20:00,86.1,72.0,30.01,ENE,67,0.0,0.0,63,0.00,FEW,,0.00,WeatherDisplay:10.37,2013-09-24 01:20:00,
2013-09-24 11:25:00,86.1,72.0,30.00,ENE,67,0.0,0.0,63,0.00,FEW,,0.00,WeatherDisplay:10.37,2013-09-24 01:25:00,
2013-09-24 11:30:00,86.0,71.9,30.00,ENE,68,0.0,0.0,63,0.00,FEW,,0.00,WeatherDisplay:10.37,2013-09-24 01:30:00,
2013-09-24 11:35:00,86.1,71.6,30.00,ENE,68,0.0,0.0,62,0.00,FEW,,0.00,WeatherDisplay:10.37,2013-09-24 01:35:00,
2013-09-24 11:40:00,86.4,71.9,30.00,ENE,69,0.0,0.0,62,0.00,FEW,,0.00,WeatherDisplay:10.37,2013-09-24 01:40:00,
2013-09-24 11:45:00,86.2,71.2,30.00,ENE,71,0.0,0.0,61,0.00,FEW,,0.00,WeatherDisplay:10.37,2013-09-24 01:45:00,
2013-09-24 11:50:00,86.3,71.7,30.00,ENE,70,0.0,0.0,62,0.00,FEW,,0.00,WeatherDisplay:10.37,2013-09-24 01:50:00,
2013-09-24 11:55:00,86.4,70.9,29.99,ENE,69,0.0,0.0,60,0.00,FEW,,0.00,WeatherDisplay:10.37,2013-09-24 01:55:00,
2013-09-24 12:00:00,86.6,71.5,29.98,ENE,69,0.0,0.0,61,0.00,FEW,,0.00,WeatherDisplay:10.37,2013-09-24 02:00:00,
2013-09-24 12:10:00,86.6,71.5,29.98,ENE,73,0.0,0.0,61,0.00,FEW,,0.00,WeatherDisplay:10.37,2013-09-24 02:10:00,
2013-09-24 12:15:00,86.5,71.9,29.97,ENE,74,0.0,0.0,62,0.00,FEW,,0.00,WeatherDisplay:10.37,2013-09-24 02:15:00,
2013-09-24 12:20:00,86.5,71.9,29.97,ENE,75,0.0,0.0,62,0.00,FEW,,0.00,WeatherDisplay:10.37,2013-09-24 02:20:00,
2013-09-24 12:25:00,86.6,72.0,29.97,ENE,73,0.0,0.0,62,0.00,FEW,,0.00,WeatherDisplay:10.37,2013-09-24 02:25:00,
2013-09-24 12:30:00,86.7,71.6,29.97,ENE,68,0.0,0.0,61,0.00,FEW,,0.00,WeatherDisplay:10.37,2013-09-24 02:30:00,
2013-09-24 12:35:00,86.4,71.4,29.97,ENE,70,0.0,0.0,61,0.00,FEW,,0.00,WeatherDisplay:10.37,2013-09-24 02:35:00,
2013-09-24 12:40:00,86.5,71.9,29.96,ENE,73,0.0,0.0,62,0.00,FEW,,0.00,WeatherDisplay:10.37,2013-09-24 02:40:00,
2013-09-24 12:45:00,86.5,71.0,29.96,ENE,72,0.0,0.0,60,0.00,FEW,,0.00,WeatherDisplay:10.37,2013-09-24 02:45:00,
2013-09-24 12:50:00,86.3,70.8,29.96,ENE,70,0.0,0.0,60,0.00,FEW,,0.00,WeatherDisplay:10.37,2013-09-24 02:50:00,
2013-09-24 12:55:00,86.3,71.3,29.96,ENE,64,0.0,0.0,61,0.00,FEW,,0.00,WeatherDisplay:10.37,2013-09-24 02:55:00,
2013-09-24 13:00:00,86.4,70.9,29.96,ENE,64,0.0,0.0,60,0.00,FEW,,0.00,WeatherDisplay:10.37,2013-09-24 03:00:00,
2013-09-24 13:10:00,86.5,70.9,29.95,ENE,67,0.0,0.0,60,0.00,FEW,,0.00,WeatherDisplay:10.37,2013-09-24 03:10:00,
2013-09-24 13:15:00,86.4,71.8,29.95,ENE,67,0.0,0.0,62,0.00,FEW,,0.00,WeatherDisplay:10.37,2013-09-24 03:15:00,
2013-09-24 13:25:00,86.3,71.7,29.94,ENE,68,0.0,0.0,62,0.00,FEW,,0.00,WeatherDisplay:10.37,2013-09-24 03:25:00,
2013-09-24 13:30:00,86.1,71.6,29.94,ENE,69,0.0,0.0,62,0.00,FEW,,0.00,WeatherDisplay:10.37,2013-09-24 03:30:00,
2013-09-24 13:35:00,85.9,71.8,29.94,ENE,69,0.0,0.0,63,0.00,FEW,,0.00,WeatherDisplay:10.37,2013-09-24 03:35:00,
2013-09-24 13:40:00,85.9,71.8,29.94,ENE,71,0.0,0.0,63,0.00,FEW,,0.00,WeatherDisplay:10.37,2013-09-24 03:40:00,
2013-09-24 13:45:00,85.7,71.7,29.94,ENE,73,0.0,0.0,63,0.00,FEW,,0.00,WeatherDisplay:10.37,2013-09-24 03:45:00,
2013-09-24 13:50:00,85.5,71.5,29.93,ENE,67,0.0,0.0,63,0.00,FEW,,0.00,WeatherDisplay:10.37,2013-09-24 03:50:00,
2013-09-24 13:55:00,85.4,71.4,29.93,ENE,64,0.0,0.0,63,0.00,FEW,,0.00,WeatherDisplay:10.37,2013-09-24 03:55:00,
2013-09-24 14:00:00,85.3,71.3,29.93,ENE,65,0.0,0.0,63,0.00,FEW,,0.00,WeatherDisplay:10.37,2013-09-24 04:00:00,
2013-09-24 14:05:00,85.3,71.3,29.92,ENE,69,0.0,0.0,63,0.00,FEW,,0.00,WeatherDisplay:10.37,2013-09-24 04:05:00,
2013-09-24 14:10:00,85.3,71.8,29.92,ENE,68,0.0,0.0,64,0.00,FEW,,0.00,WeatherDisplay:10.37,2013-09-24 04:10:00,
2013-09-24 14:15:00,85.3,71.8,29.92,ENE,66,0.0,0.0,64,0.00,FEW,,0.00,WeatherDisplay:10.37,2013-09-24 04:15:00,
2013-09-24 14:20:00,85.3,71.8,29.92,ENE,71,0.0,0.0,64,0.00,FEW,,0.00,WeatherDisplay:10.37,2013-09-24 04:20:00,
2013-09-24 14:25:00,85.4,71.8,29.92,ENE,70,0.0,0.0,64,0.00,FEW,,0.00,WeatherDisplay:10.37,2013-09-24 04:25:00,
2013-09-24 14:30:00,85.3,71.3,29.92,ENE,71,0.0,0.0,63,0.00,FEW,,0.00,WeatherDisplay:10.37,2013-09-24 04:30:00,
2013-09-24 14:35:00,85.2,71.2,29.92,ENE,72,0.0,0.0,63,0.00,FEW,,0.00,WeatherDisplay:10.37,2013-09-24 04:35:00,
2013-09-24 14:40:00,84.9,71.4,29.92,ENE,70,0.0,0.0,64,0.00,FEW,,0.00,WeatherDisplay:10.37,2013-09-24 04:40:00,
2013-09-24 14:45:00,84.8,71.3,29.92,ENE,69,0.0,0.0,64,0.00,FEW,,0.00,WeatherDisplay:10.37,2013-09-24 04:45:00,
2013-09-24 14:50:00,84.7,70.7,29.92,ENE,68,0.0,0.0,63,0.00,FEW,,0.00,WeatherDisplay:10.37,2013-09-24 04:50:00,
2013-09-24 14:55:00,84.5,70.0,29.92,ENE,65,0.0,0.0,62,0.00,FEW,,0.00,WeatherDisplay:10.37,2013-09-24 04:55:00,
2013-09-24 15:00:00,84.3,70.8,29.92,ENE,65,0.0,0.0,64,0.00,FEW,,0.00,WeatherDisplay:10.37,2013-09-24 05:00:00,
2013-09-24 15:05:00,83.9,69.9,29.91,ENE,66,0.0,0.0,63,0.00,FEW,,0.00,WeatherDisplay:10.37,2013-09-24 05:05:00,
2013-09-24 15:10:00,83.6,70.1,29.91,ENE,65,0.0,0.0,64,0.00,FEW,,0.00,WeatherDisplay:10.37,2013-09-24 05:10:00,
2013-09-24 15:15:00,83.6,70.1,29.91,ENE,67,0.0,0.0,64,0.00,FEW,,0.00,WeatherDisplay:10.37,2013-09-24 05:15:00,
2013-09-24 15:20:00,83.6,70.6,29.91,ENE,71,0.0,0.0,65,0.00,FEW,,0.00,WeatherDisplay:10.37,2013-09-24 05:20:00,
2013-09-24 15:25:00,83.4,70.4,29.91,ENE,70,0.0,0.0,65,0.00,FEW,,0.00,WeatherDisplay:10.37,2013-09-24 05:25:00,
2013-09-24 15:30:00,83.4,69.9,29.91,ENE,69,0.0,0.0,64,0.00,FEW,,0.00,WeatherDisplay:10.37,2013-09-24 05:30:00,
2013-09-24 15:35:00,83.4,70.8,29.91,ENE,70,0.0,0.0,66,0.00,FEW,,0.00,WeatherDisplay:10.37,2013-09-24 05:35:00,
2013-09-24 15:40:00,83.2,70.2,29.91,ENE,69,0.0,0.0,65,0.00,FEW,,0.00,WeatherDisplay:10.37,2013-09-24 05:40:00,
2013-09-24 15:50:00,82.9,69.9,29.91,ENE,70,0.0,0.0,65,0.00,FEW,,0.00,WeatherDisplay:10.37,2013-09-24 05:50:00,
2013-09-24 15:55:00,82.6,70.1,29.91,ENE,70,0.0,0.0,66,0.00,FEW,,0.00,WeatherDisplay:10.37,2013-09-24 05:55:00,
2013-09-24 16:00:00,82.2,70.1,29.91,ENE,68,0.0,0.0,67,0.00,FEW,,0.00,WeatherDisplay:10.37,2013-09-24 06:00:00,
2013-09-24 16:10:00,81.6,70.5,29.91,ENE,65,0.0,0.0,69,0.00,FEW,,0.00,WeatherDisplay:10.37,2013-09-24 06:10:00,
2013-09-24 16:15:00,81.6,70.0,29.91,ENE,63,0.0,0.0,68,0.00,FEW,,0.00,WeatherDisplay:10.37,2013-09-24 06:15:00,
2013-09-24 16:20:00,81.4,70.2,29.91,ENE,62,0.0,0.0,69,0.00,FEW,,0.00,WeatherDisplay:10.37,2013-09-24 06:20:00,
2013-09-24 16:25:00,81.1,70.0,29.91,ENE,62,0.0,0.0,69,0.00,FEW,,0.00,WeatherDisplay:10.37,2013-09-24 06:25:00,
2013-09-24 16:30:00,80.9,69.8,29.91,ENE,62,0.0,0.0,69,0.00,FEW,,0.00,WeatherDisplay:10.37,2013-09-24 06:30:00,
2013-09-24 16:35:00,80.8,69.7,29.92,ENE,63,0.0,0.0,69,0.00,FEW,,0.00,WeatherDisplay:10.37,2013-09-24 06:35:00,
2013-09-24 16:40:00,80.7,69.6,29.92,ENE,65,0.0,0.0,69,0.00,FEW,,0.00,WeatherDisplay:10.37,2013-09-24 06:40:00,
2013-09-24 16:45:00,80.4,68.9,29.92,ENE,65,0.0,0.0,68,0.00,FEW,,0.00,WeatherDisplay:10.37,2013-09-24 06:45:00,
2013-09-24 16:50:00,80.2,68.7,29.91,ENE,64,0.0,0.0,68,0.00,FEW,,0.00,WeatherDisplay:10.37,2013-09-24 06:50:00,
2013-09-24 16:55:00,80.0,68.5,29.91,ENE,64,0.0,0.0,68,0.00,FEW,,0.00,WeatherDisplay:10.37,2013-09-24 06:55:00,
2013-09-24 17:00:00,79.8,68.3,29.91,ENE,63,0.0,0.0,68,0.00,FEW,,0.00,WeatherDisplay:10.37,2013-09-24 07:00:00,
2013-09-24 17:10:00,79.7,68.2,29.91,ENE,66,0.0,0.0,68,0.00,FEW,,0.00,WeatherDisplay:10.37,2013-09-24 07:10:00,
2013-09-24 17:15:00,79.6,68.1,29.92,ENE,65,0.0,0.0,68,0.00,FEW,,0.00,WeatherDisplay:10.37,2013-09-24 07:15:00,
2013-09-24 17:20:00,79.5,68.4,29.92,ENE,64,0.0,0.0,69,0.00,FEW,,0.00,WeatherDisplay:10.37,2013-09-24 07:20:00,
2013-09-24 17:25:00,79.3,68.3,29.92,ENE,65,0.0,0.0,69,0.00,FEW,,0.00,WeatherDisplay:10.37,2013-09-24 07:25:00,
2013-09-24 17:30:00,79.1,68.1,29.92,ENE,65,0.0,0.0,69,0.00,FEW,,0.00,WeatherDisplay:10.37,2013-09-24 07:30:00,
2013-09-24 17:35:00,78.9,68.3,29.92,ENE,65,0.0,0.0,70,0.00,FEW,,0.00,WeatherDisplay:10.37,2013-09-24 07:35:00,
2013-09-24 17:40:00,78.7,68.1,29.92,ENE,65,0.0,0.0,70,0.00,FEW,,0.00,WeatherDisplay:10.37,2013-09-24 07:40:00,
2013-09-24 17:45:00,78.5,67.9,29.93,ENE,64,0.0,0.0,70,0.00,FEW,,0.00,WeatherDisplay:10.37,2013-09-24 07:45:00,
2013-09-24 17:55:00,78.2,68.0,29.93,ENE,66,0.0,0.0,71,0.00,FEW,,0.00,WeatherDisplay:10.37,2013-09-24 07:55:00,
2013-09-24 18:00:00,78.0,67.8,29.93,ENE,68,0.0,0.0,71,0.00,FEW,,0.00,WeatherDisplay:10.37,2013-09-24 08:00:00,
2013-09-24 18:10:00,77.6,67.9,29.93,ENE,68,0.0,0.0,72,0.00,FEW,,0.00,WeatherDisplay:10.37,2013-09-24 08:10:00,
2013-09-24 18:15:00,77.5,68.2,29.93,ENE,71,0.0,0.0,73,0.00,FEW,,0.00,WeatherDisplay:10.37,2013-09-24 08:15:00,
2013-09-24 18:20:00,77.3,67.6,29.94,ENE,72,0.0,0.0,72,0.00,FEW,,0.00,WeatherDisplay:10.37,2013-09-24 08:20:00,
2013-09-24 18:25:00,77.2,67.1,29.94,ENE,71,0.0,0.0,71,0.00,FEW,,0.00,WeatherDisplay:10.37,2013-09-24 08:25:00,
2013-09-24 18:30:00,77.1,67.4,29.94,ENE,71,0.0,0.0,72,0.00,FEW,,0.00,WeatherDisplay:10.37,2013-09-24 08:30:00,
2013-09-24 18:35:00,77.0,67.3,29.93,ENE,71,0.0,0.0,72,0.00,FEW,,0.00,WeatherDisplay:10.37,2013-09-24 08:35:00,
2013-09-24 18:40:00,77.0,67.7,29.94,ENE,70,0.0,0.0,73,0.00,FEW,,0.00,WeatherDisplay:10.37,2013-09-24 08:40:00,
2013-09-24 18:45:00,76.9,67.6,29.94,ENE,70,0.0,0.0,73,0.00,FEW,,0.00,WeatherDisplay:10.37,2013-09-24 08:45:00,
2013-09-24 18:50:00,76.8,67.5,29.94,ENE,70,0.0,0.0,73,0.00,FEW,,0.00,WeatherDisplay:10.37,2013-09-24 08:50:00,
2013-09-24 18:55:00,76.8,67.4,29.94,ENE,71,0.0,0.0,73,0.00,FEW,,0.00,WeatherDisplay:10.37,2013-09-24 08:55:00,
2013-09-24 19:00:00,76.7,67.0,29.94,ENE,72,0.0,0.0,72,0.00,FEW,,0.00,WeatherDisplay:10.37,2013-09-24 09:00:00,
2013-09-24 19:05:00,76.6,67.3,29.95,ENE,72,0.0,0.0,73,0.00,FEW,,0.00,WeatherDisplay:10.37,2013-09-24 09:05:00,
2013-09-24 19:10:00,76.5,67.2,29.94,ENE,72,0.0,0.0,73,0.00,FEW,,0.00,WeatherDisplay:10.37,2013-09-24 09:10:00,
2013-09-24 19:15:00,76.4,67.1,29.95,ENE,73,0.0,0.0,73,0.00,FEW,,0.00,WeatherDisplay:10.37,2013-09-24 09:15:00,
2013-09-24 19:20:00,76.4,67.1,29.95,ENE,75,0.0,0.0,73,0.00,FEW,,0.00,WeatherDisplay:10.37,2013-09-24 09:20:00,
2013-09-24 19:25:00,76.3,67.0,29.95,ENE,77,0.0,0.0,73,0.00,FEW,,0.00,WeatherDisplay:10.37,2013-09-24 09:25:00,
2013-09-24 19:30:00,76.1,67.2,29.95,ENE,77,0.0,0.0,74,0.00,FEW,,0.00,WeatherDisplay:10.37,2013-09-24 09:30:00,
2013-09-24 19:35:00,76.0,67.1,29.95,ENE,77,0.0,0.0,74,0.00,FEW,,0.00,WeatherDisplay:10.37,2013-09-24 09:35:00,
2013-09-24 19:40:00,75.7,66.4,29.95,ENE,77,0.0,0.0,73,0.00,FEW,,0.00,WeatherDisplay:10.37,2013-09-24 09:40:00,
2013-09-24 19:45:00,75.3,66.5,29.95,ENE,77,0.0,0.0,74,0.00,FEW,,0.00,WeatherDisplay:10.37,2013-09-24 09:45:00,
2013-09-24 19:50:00,74.9,66.1,29.96,ENE,77,0.0,0.0,74,0.00,FEW,,0.00,WeatherDisplay:10.37,2013-09-24 09:50:00,
2013-09-24 19:55:00,74.4,66.0,29.96,ENE,77,0.0,0.0,75,0.00,FEW,,0.00,WeatherDisplay:10.37,2013-09-24 09:55:00,
2013-09-24 20:00:00,73.8,65.4,29.96,ENE,77,0.0,0.0,75,0.00,FEW,,0.00,WeatherDisplay:10.37,2013-09-24 10:00:00,
2013-09-24 20:10:00,73.1,65.4,29.97,ENE,77,0.0,0.0,77,0.00,FEW,,0.00,WeatherDisplay:10.37,2013-09-24 10:10:00,
2013-09-24 20:15:00,72.7,65.4,29.97,ENE,77,0.0,0.0,78,0.00,FEW,,0.00,WeatherDisplay:10.37,2013-09-24 10:15:00,
2013-09-24 20:20:00,72.3,65.4,29.97,ENE,77,0.0,0.0,79,0.00,FEW,,0.00,WeatherDisplay:10.37,2013-09-24 10:20:00,
2013-09-24 20:25:00,72.0,65.5,29.97,ENE,77,0.0,0.0,80,0.00,FEW,,0.00,WeatherDisplay:10.37,2013-09-24 10:25:00,
2013-09-24 20:30:00,71.8,65.3,29.98,ENE,77,0.0,0.0,80,0.00,FEW,,0.00,WeatherDisplay:10.37,2013-09-24 10:30:00,
2013-09-24 20:35:00,71.5,65.3,29.98,ENE,77,0.0,0.0,81,0.00,FEW,,0.00,WeatherDisplay:10.37,2013-09-24 10:35:00,
2013-09-24 20:40:00,71.2,65.0,29.98,ENE,77,0.0,0.0,81,0.00,FEW,,0.00,WeatherDisplay:10.37,2013-09-24 10:40:00,
2013-09-24 20:45:00,70.9,64.8,29.98,ENE,77,0.0,0.0,81,0.00,FEW,,0.00,WeatherDisplay:10.37,2013-09-24 10:45:00,
2013-09-24 20:50:00,70.7,64.9,29.98,ENE,77,0.0,0.0,82,0.00,FEW,,0.00,WeatherDisplay:10.37,2013-09-24 10:50:00,
2013-09-24 20:55:00,70.5,64.8,29.98,ENE,77,0.0,0.0,82,0.00,FEW,,0.00,WeatherDisplay:10.37,2013-09-24 10:55:00,
2013-09-24 21:00:00,70.3,64.6,29.98,ENE,77,0.0,0.0,82,0.00,FEW,,0.00,WeatherDisplay:10.37,2013-09-24 11:00:00,
2013-09-24 21:05:00,70.1,64.4,29.98,ENE,77,0.0,0.0,82,0.00,FEW,,0.00,WeatherDisplay:10.37,2013-09-24 11:05:00,
2013-09-24 21:10:00,69.8,64.1,29.98,ENE,77,0.0,0.0,82,0.00,FEW,,0.00,WeatherDisplay:10.37,2013-09-24 11:10:00,
2013-09-24 21:15:00,69.5,64.1,29.99,ENE,77,0.0,0.0,83,0.00,FEW,,0.00,WeatherDisplay:10.37,2013-09-24 11:15:00,
2013-09-24 21:20:00,69.2,63.8,29.99,ENE,77,0.0,0.0,83,0.00,FEW,,0.00,WeatherDisplay:10.37,2013-09-24 11:20:00,
2013-09-24 21:25:00,69.0,63.6,29.99,ENE,77,0.0,0.0,83,0.00,FEW,,0.00,WeatherDisplay:10.37,2013-09-24 11:25:00,
2013-09-24 21:35:00,68.5,63.8,29.99,ENE,77,0.0,0.0,85,0.00,FEW,,0.00,WeatherDisplay:10.37,2013-09-24 11:35:00,
2013-09-24 21:40:00,68.3,63.6,29.99,ENE,77,0.0,0.0,85,0.00,FEW,,0.00,WeatherDisplay:10.37,2013-09-24 11:40:00,
2013-09-24 21:45:00,68.3,63.6,29.99,ENE,77,0.0,0.0,85,0.00,FEW,,0.00,WeatherDisplay:10.37,2013-09-24 11:45:00,
2013-09-24 21:50:00,68.2,63.5,29.99,ENE,77,0.0,0.0,85,0.00,FEW,,0.00,WeatherDisplay:10.37,2013-09-24 11:50:00,
2013-09-24 21:55:00,68.2,63.5,29.99,ENE,77,0.0,0.0,85,0.00,FEW,,0.00,WeatherDisplay:10.37,2013-09-24 11:55:00,
2013-09-24 22:00:00,68.1,63.8,30.00,ENE,77,0.0,0.0,86,0.00,FEW,,0.00,WeatherDisplay:10.37,2013-09-24 12:00:00,
2013-09-24 22:10:00,67.9,63.6,30.00,ENE,77,0.0,0.0,86,0.00,FEW,,0.00,WeatherDisplay:10.37,2013-09-24 12:10:00,
2013-09-24 22:20:00,67.7,63.4,30.00,ENE,77,0.0,0.0,86,0.00,FEW,,0.00,WeatherDisplay:10.37,2013-09-24 12:20:00,
2013-09-24 22:25:00,67.6,63.3,30.00,ENE,77,0.0,0.0,86,0.00,FEW,,0.00,WeatherDisplay:10.37,2013-09-24 12:25:00,
2013-09-24 22:30:00,67.6,63.6,30.00,ENE,77,0.0,0.0,87,0.00,FEW,,0.00,WeatherDisplay:10.37,2013-09-24 12:30:00,
2013-09-24 22:40:00,67.8,63.8,30.00,ENE,77,0.0,0.0,87,0.00,FEW,,0.00,WeatherDisplay:10.37,2013-09-24 12:40:00,
2013-09-24 22:45:00,68.1,64.4,30.00,ENE,77,0.0,0.0,88,0.00,FEW,,0.00,WeatherDisplay:10.37,2013-09-24 12:45:00,
2013-09-24 22:50:00,68.3,64.3,30.00,ENE,77,0.0,0.0,87,0.00,FEW,,0.00,WeatherDisplay:10.37,2013-09-24 12:50:00,
2013-09-24 22:55:00,68.4,64.4,30.00,ENE,77,0.0,0.0,87,0.00,FEW,,0.00,WeatherDisplay:10.37,2013-09-24 12:55:00,
2013-09-24 23:00:00,68.6,64.6,30.00,ENE,77,0.0,0.0,87,0.00,FEW,,0.00,WeatherDisplay:10.37,2013-09-24 13:00:00,
2013-09-24 23:05:00,68.8,64.4,30.00,ENE,77,0.0,0.0,86,0.00,FEW,,0.00,WeatherDisplay:10.37,2013-09-24 13:05:00,
2013-09-24 23:10:00,68.9,64.5,30.00,East,84,0.0,0.0,86,0.00,FEW,,0.00,WeatherDisplay:10.37,2013-09-24 13:10:00,
2013-09-24 23:15:00,69.1,64.4,30.00,East,90,0.0,0.0,85,0.00,FEW,,0.00,WeatherDisplay:10.37,2013-09-24 13:15:00,
2013-09-24 23:20:00,69.3,64.6,30.00,East,91,0.0,0.0,85,0.00,FEW,,0.00,WeatherDisplay:10.37,2013-09-24 13:20:00,
2013-09-24 23:25:00,69.3,64.6,30.00,East,91,0.0,0.0,85,0.00,FEW,,0.00,WeatherDisplay:10.37,2013-09-24 13:25:00,
2013-09-24 23:30:00,69.4,64.7,30.00,East,91,0.0,0.0,85,0.00,FEW,,0.00,WeatherDisplay:10.37,2013-09-24 13:30:00,
2013-09-24 23:35:00,69.4,64.4,30.00,East,92,0.0,0.0,84,0.00,FEW,,0.00,WeatherDisplay:10.37,2013-09-24 13:35:00,
2013-09-24 23:40:00,69.4,64.4,30.00,East,93,0.0,0.0,84,0.00,FEW,,0.00,WeatherDisplay:10.37,2013-09-24 13:40:00,
2013-09-24 23:45:00,69.4,64.4,30.00,East,93,0.0,0.0,84,0.00,FEW,,0.00,WeatherDisplay:10.37,2013-09-24 13:45:00,
2013-09-24 23:50:00,69.4,64.3,30.00,East,93,0.0,0.0,84,0.00,FEW,,0.00,WeatherDisplay:10.37,2013-09-24 13:50:00,